User: anonymous   Login
Location: Ostrava
(49.8330°N, 18.2830°E)
Time: 15:14:13
(UTC+01:00)
Language:

Cosmos 1400 Rocket - Orbit

View from above orbital plane
View from above orbital plane
View from above satellite
View from above satellite

Ground track
Ground track

The orbit data is extracted from the following two-line orbital elements,

1 13403U 82079B   14355.86819379  .00005336  00000-0  37482-3 0  7460
2 13403 081.1702 228.5527 0036478 029.5628 330.7646 15.04422435760027
Epoch (UTC): 21 December 2014 20:50:11
Eccentricity: 0.0036478
inclination: 81.1702°
perigee height: 528 km
apogee height: 578 km
right ascension of ascending node: 228.5527°
argument of perigee: 29.5628°
revolutions per day: 15.04422435
mean anomaly at epoch: 330.7646°
orbit number at epoch: 76002

The dashed part of the orbit path shows where the satellite is in the earth's shadow,  

DLR